Regional Weather Roundup
Issued by NWS Wakefield, VA

Current Version | Previous Version | Text Only | Print | Product List | Glossary On
Versions: 1 2 3 4 5 6 7 8 9 10 11 12 13 14 15 16 17 18 19 20 21 22 23 24 25 26 27
000
ASUS41 KAKQ 160410
RWRAKQ

REGIONAL WEATHER ROUNDUP
NATIONAL WEATHER SERVICE WAKEFIELD VA
1200 AM EDT WED APR 16 2014

Note: "fair" indicates few or no clouds below 12,000 feet with no
significant weather and/or obstructions to visibility. * = Denotes
station may not report precipitation (e.g., rain,snow,etc.),
thunder or fog.

VAZ042-051-052>054-056-160500-
NORTHERN VIRGINIA

CITY           SKY/WX    TMP DP  RH WIND       PRES   REMARKS
WASH NATIONAL  CLOUDY    39  24  55 NW23G32   30.05R
DULLES         MOCLDY    35  20  54 N18G31    30.05R WCI  24
FORT BELVOIR   CLOUDY    38  23  55 NW16G24   30.06R
QUANTICO       CLOUDY    39  24  55 N13G25    30.08R
FREDERICKSBRG* CLOUDY    39  27  60 N12G22    30.07R
STAFFORD*      CLOUDY    38  27  64 NW21G29   30.10R
WARRENTON      CLOUDY    37  28  69 N15G26    30.08R
CULPEPER*      CLOUDY    39  21  48 N14G28    30.08R
MANASSAS*      MOCLDY    37  27  65 NW13G24   30.08R
LEESBURG*      MOCLDY    36  23  60 N26G40    30.07S WCI  23
WINCHESTER     CLOUDY    34  19  55 NW15G29   30.08R WCI  24
$$

VAZ048-049-060>072-079>083-160500-
CENTRAL AND SOUTH CENTRAL VIRGINIA...AND NORTH CENTRAL NORTH CAROLINA

CITY           SKY/WX    TMP DP  RH WIND       PRES   REMARKS
RICHMOND       CLOUDY    40  33  76 N15G24    30.05R
CHESTERFIELD*  CLOUDY    39  27  60 N15G21    30.02R
HANOVER        MOCLDY    38  32  79 N10G17    30.08R
TAPPAHANNOCK*  MOCLDY    38  31  75 NW8G18    30.05R
CHARLOTTSVILLE MOCLDY    37  20  50 N9G31     30.04R
ORANGE*        PTCLDY    36  23  60 NW13      30.07R
LOUISA*        PTCLDY    37  27  65 N10G24    30.03R
FARMVILLE*     PTCLDY    39  30  70 CALM      30.05R
SOUTH HILL*    MOCLDY    43  41  93 N8        30.06R
ROANOKE RAPIDS CLOUDY    43  41  93 N13G24    30.00R
RALEIGH        PTCLDY    41  30  65 N9        30.02R
$$

VAZ088>098-160500-
SOUTHEAST VIRGINIA

CITY           SKY/WX    TMP DP  RH WIND       PRES   REMARKS
NORFOLK        RAIN      43  38  82 N20G37    29.97R
VIRGINIA BEACH RAIN      43  39  86 N31G38    29.94R FOG
NORFOLK NAVAL  LGT RAIN  42  37  82 N24G37    30.02R
WEST POINT*    CLOUDY    39  35  84 N10G18    30.04R
NEWPORT NEWS   RAIN      42  36  79 N17G28    30.00R
LANGLEY AFB    HVY RAIN  41  39  93 N24G37    30.01R FOG
FORT EUSTIS    MIX PCPN  39  37  93 N20G33    30.00R
WILLIAMSBURG*    N/A     39  37  93 N10G24    30.01R
FRANKLIN*      CLOUDY    41 N/A N/A N13G23    30.00R
WAKEFIELD      LGT RAIN  39  35  86 NE13G21   30.00R
$$

VAZ020-022-025-037-045-160500-
WESTERN AND SOUTHWEST VIRGINIA

CITY           SKY/WX    TMP DP  RH WIND       PRES   REMARKS
STAUNTON*      CLEAR     33  18  55 NW14G20   30.06S WCI  23
HOT SPRINGS VA MOCLDY    19  14  79 NW22G35   29.96R WCI   3
LYNCHBURG      CLEAR     40  20  44 N8G20     30.06R
DANVILLE       CLEAR     38  23  55 NW13      30.06R
MARTINSVILLE   CLEAR     36  21  55 N15G24    30.08R
ROANOKE        PTCLDY    34  18  52 N18G32    30.08R WCI  23
BLACKSBURG     MOCLDY    30  21  69 NW17G24   30.07S WCI  18
DUBLIN*        CLOUDY    30  19  63 N9G16     30.07R
MARION*        CLOUDY    29  18  64 NW12G17   30.08R WCI  19
HILLSVILLE*    PTCLDY    28  16  59 NW16G26   30.03R WCI  17
RICHLANDS*     CLOUDY    30  21  68 NW12G17   30.08F WCI  21
WISE*          CLOUDY    30  19  64 N10G17    30.11S WCI  21
ABINGDON*      CLOUDY    33  19  56 N10G20    30.11S WCI  25
$$

MDZ021>025-VAZ099-100-160500-
SOUTHERN MARYLAND AND THE DELMARVA PENINSULA

CITY           SKY/WX    TMP DP  RH WIND       PRES   REMARKS
PATUXENT RIVER CLOUDY    38  32  79 NW17G26   30.01R
BAY BRIDGE APT CLOUDY    39  32  75 NW18G28   30.01R
LEONARDTOWN    CLOUDY    36  32  87 NW10G21   30.03R
DOVER          RAIN      34  34 100 NW17G24   29.97S WCI  23
GEORGETOWN     LGT SNOW  36  33  89 NW6       29.97R FOG
EASTON         CLOUDY    40  38  92 N15G22    30.00F
CAMBRIDGE      NOT AVBL
SALISBURY      RAIN      37  34  87 NW17G28   29.98R FOG
OCEAN CITY     RAIN      41  38  89 N17G24    29.93R
WALLOPS ISLAND RAIN      40  37  89 N18G33    29.95R
ACCOMACK*      RAIN      45  39  81 N20G37    29.95R
$$

NCZ012>017-030>032-160500-
EASTERN NORTH CAROLINA

CITY           SKY/WX    TMP DP  RH WIND       PRES   REMARKS
ELIZABETH CITY HVY RAIN  44  42  93 N23G32    29.92R FOG
AHOSKIE*       CLOUDY    41  38  90 N21G29    29.99R
EDENTON*       LGT RAIN  42  41  95 N23G39    29.92S
CURRITUCK*     LGT RAIN  42  39  88 NW16G29   29.94R
KILL DEVIL HLS RAIN      44  43  97 N20G32    29.88R
MANTEO         RAIN      46  45  97 N26G40    29.89R
CAPE HATTERAS  HVY RAIN  51  49  92 N16G38    29.80R FOG
GOLDSBORO      CLOUDY    46  45  97 NW12G25   29.94R
WASHINGTON     CLOUDY    45  41  85 N14G23    29.95R
GREENVILLE     DRIZZLE   43  41  93 N20G28    29.99R
NEW BERN       LGT RAIN  50  45  83 N18G33    29.90R
WILMINGTON     CLOUDY    49  45  86 N23G36    29.90R
$$

VAZ048-160500-
ELSEWHERE

CITY           SKY/WX    TMP DP  RH WIND       PRES   REMARKS
HARRISBURG PA  MOCLDY    36  20  52 NW18      30.05R
BALTIMORE      CLOUDY    37  27  67 NW13      30.03R
ANNAPOLIS      CLOUDY    41  37  86 NW23G30   30.00R
ANDREWS AFB    CLOUDY    37  26  65 NW21G26   30.02R
WILMINGTON DE  CLOUDY    38  33  82 N14       29.98R
PHILADELPHIA   CLOUDY    38  32  79 N15       29.98S
WILDWOOD NJ*   CLOUDY    39  34  81 NW12G21   29.93S
ATLANTIC CITY  RAIN      35  34  96 NW18G24   29.92R FOG     WCI  24
HENDERSON NC   CLOUDY    41  37  84 NW9       30.02R
GREENSBORO     CLEAR     36  25  64 N8        30.03R
ROCKY MOUNT      N/A    N/A N/A N/A MISG      29.98R
FAYETTEVILLE   CLEAR     44  34  67 NW15      29.99R
CHARLOTTE      CLEAR     38  25  59 N9        30.04R
$$

VAZ100-160500-
MARINE

STATION/POSITION TIME  TEMP    WIND        PRES    WAVE   SWELL
                       AIR SEA DIR/SP/G            HT/PER HT/PER
                 (UTC) (F)     (DEG/KT/KT) (MB)    (FT/S) (FT/S)
44066 TX TWR #4  0400   43 45  330/ 25/ 35 1008.0R  12/11   8/11
CAPE MAY NJ      0400   40 56  340/ 15/ 24 1012.7F
LEWES DE         0400   40 50  330/ 29/ 35 1012.8R
15NM E FENWICK I 0400   42 45              1011.6R   8/ 6
OCEAN-CITY-INLET 0400   41 46  350/ 22/ 30 1012.5R
WACHAPREAGUE VA  0400   41 61  350/ 13/ 24 1013.0R
THOMAS POINT MD  0400   39 51  330/ 24/ 27 1015.5F
GOOSES REEF MD   0400   40     350/ 21/ 25 1016.0F
COVE POINT MD    0400   40     360/ 26/ 31 1014.7F
SOLOMONS ISLAND  0400      54                N/A
BISHOPS HEAD MD  0400   36 53  350/ 12/ 17 1015.3S
PINEY POINT MD   0400          360/ 21/ 25   N/A
POTOMAC MD       0400   36      10/ 17/ 23 1015.0S
CAMBRIDGE MD     0400   39 56  340/ 19/ 27 1014.9F
LEWISETTA VA     0400   38 54  350/ 14/ 20 1016.5R
RAPPAHANNOCK LGT 0400          340/ 33/ 37 1014.6R
STINGRAY PT      0400   40     360/ 27/ 35 1014.2F
YORK RVR RNG VA  0400   41      10/ 32/ 40 1013.5R
YORKTOWN VA      0400   40 57  340/ 21/ 25 1015.5R
JAMESTOWN VA     0400          350/ 17/ 27   N/A
DOMINION TERM VA 0400   41      50/  5/ 13 1014.5R
KIPTOPEKE VA     0400      57  360/ 26/ 36   N/A
CHES BAY BRIDGE  0400      52  330/ 35/ 40 1013.3F
CAPE HENRY VA    0400          340/ 35/ 41   N/A
CHESAPEAKE LGHT  0300   44     350/ 35/ 38 1010.6R
WILLOUBY STN VA  0400   39     340/ 28/ 32 1013.9R
S CRANEY ISL VA  0400          330/ 25/ 32 1015.0R
CAPE HENRY BUOY  0400      46                N/A     8/ 6
1ST LANDING BUOY 0400      47                N/A     6/ 5   3/ 8
64NM E OF VA BCH 0400   47 52  350/ 33/ 39 1008.5R  12/ 9
DUCK PIER NC     0400      47  350/ 30/ 39 1010.3R
44100 DUCK FRF   0300      47                N/A     8/ 6   2/11
44056 DUCK FRF   0400      47                N/A     8/ 7
OREGON INLET NC  0400      69  340/ 27/ 40 1010.7R
HATTERAS NC      0400      66  350/ 46/ 57 1008.3R
CAPE LOOKOUT NC  0300   60     320/ 37/ 43 1006.2R
FRYING PAN SHLS  0400   55 66  340/ 31/ 39 1009.5R   7/ 8   3/ 8
$$



USA.gov is the U.S. government's official web portal to all federal, state and local government web resources and services.